User: anonymous   Login
Location: Arapaho Elementary School
(32.9607°N, 96.7625°W)
Time: 10:50:13
(UTC+00:00)
Language:

CZ-4B R/B - Orbit

View from above orbital plane
View from above orbital plane
View from above satellite
View from above satellite

Ground track
Ground track

The orbit data is extracted from the following two-line orbital elements,

1 29093U 06015B   22142.68847247  .00035647  00000-0  46337-3 0  9993
2 29093  97.6048   0.5106 0038717 278.3968  81.2899 15.57794835895542
Epoch (UTC): 22 May 2022 16:31:24
Eccentricity: 0.0038717
inclination: 97.6048°
perigee height: 368 km
apogee height: 420 km
right ascension of ascending node: 0.5106°
argument of perigee: 278.3968°
revolutions per day: 15.57794835
mean anomaly at epoch: 81.2899°
orbit number at epoch: 89554

The dashed part of the orbit path shows where the satellite is in the earth's shadow,  

DLR